Weather History for LDPL - November, 2012

Change the Weather History Date:

Thursday, November 8, 2012

  Actual Average Record
Temperature  
Mean Temperature 48 °F -  
Max Temperature 61 °F - - ()
Min Temperature 36 °F - - ()
Degree Days  
Heating Degree Days 16    
Moisture  
Dew Point 39 °F    
Average Humidity 66    
Maximum Humidity 93    
Minimum Humidity 40    
Precipitation  
Precipitation 0.00 in - - ()
Sea Level Pressure  
Sea Level Pressure 30.26 in    
Wind  
Wind Speed 4 mph ()    
Max Wind Speed 9 mph    
Max Gust Speed -    
Visibility 15.5 miles    
Events      
T = Trace of Precipitation, MM = Missing Value Source: Averaged Metar Reports

Daily Weather History Graph

Daily Weather History Graph

Search for Another Location

Airport or City:

Trip Planner

Search our weather history database for the weather conditions in past years. The results will help you decide how hot, cold, wet, or windy it might be!

Date:

Astronomy

Nov. 08, 2012 Rise Set
Actual Time 6:52 AM CET 4:43 PM CET
Civil Twilight 6:21 AM CET 5:14 PM CET
Nautical Twilight 5:46 AM CET 5:49 PM CET
Astronomical Twilight 5:11 AM CET 6:23 PM CET
Moon 12:14 AM CET (11/8) 1:29 PM CET (11/8)
Length of Visible Light 10h 52m
Length of Day
9h 50m
Waning Crescent, 35% of the Moon is Illuminated
Nov 8
Waning Crescent
Nov 13
New
Nov 20
First Quarter
Nov 28
Full
Dec 6
Last Quarter

Hourly Weather History & Observations

Time (CET) Temp. Windchill Dew Point Humidity Pressure Visibility Wind Dir Wind Speed Gust Speed Precip Events Conditions
12:00 AM 46.4 °F 43.5 °F 33.8 °F 62% 30.36 in - NNE 5.8 mph - N/A   Clear
12:30 AM 46.4 °F 43.5 °F 33.8 °F 62% 30.36 in - NNE 5.8 mph - N/A   Clear
1:00 AM 46 °F - 35 °F 54% 30.38 in 25 mi NNE 4.5 mph - -  
1:00 AM 46.4 °F 43.5 °F 35.6 °F 66% 30.36 in - NNE 5.8 mph - N/A   Clear
1:30 AM 46.4 °F 42.9 °F 33.8 °F 62% 30.36 in - NNE 6.9 mph - N/A   Clear
2:00 AM 46.4 °F 44.3 °F 33.8 °F 62% 30.33 in - NNE 4.6 mph - N/A   Clear
2:30 AM 46.4 °F 43.5 °F 33.8 °F 62% 30.33 in - North 5.8 mph - N/A   Clear
3:00 AM 46.4 °F 43.5 °F 33.8 °F 62% 30.33 in - North 5.8 mph - N/A   Clear
3:30 AM 44.6 °F 40.7 °F 33.8 °F 66% 30.33 in - North 6.9 mph - N/A   Clear
4:00 AM 45 °F - 33 °F 52% 30.35 in 25 mi North 6.7 mph - -  
4:00 AM 44.6 °F 41.4 °F 33.8 °F 66% 30.33 in - North 5.8 mph - N/A   Clear
4:30 AM 41.0 °F - 32.0 °F 70% 30.33 in - Calm Calm - N/A   Clear
5:00 AM 37 °F - 30 °F 68% 30.34 in 25 mi NE 2.2 mph - -  
5:00 AM 37.4 °F - 30.2 °F 75% 30.30 in - Variable 2.3 mph - N/A   Clear
5:30 AM 42.8 °F - 32.0 °F 66% 30.30 in - Variable 2.3 mph - N/A   Clear
6:00 AM 43 °F - 31 °F 51% 30.33 in 25 mi NNE 2.2 mph - -  
6:00 AM 42.8 °F - 30.2 °F 61% 30.30 in - Variable 1.2 mph - N/A   Clear
6:30 AM 41.0 °F 38.0 °F 30.2 °F 65% 30.30 in - NNE 4.6 mph - N/A   Clear
7:00 AM 43 °F - 31 °F 51% 30.32 in 25 mi NE 2.2 mph - -  
7:00 AM 42.8 °F 40.1 °F 30.2 °F 61% 30.30 in - NE 4.6 mph - N/A   Clear
7:30 AM 44.6 °F 42.2 °F 32.0 °F 61% 30.30 in - NE 4.6 mph - N/A   Clear
8:00 AM 46.4 °F - 33.8 °F 62% 30.30 in - Variable 1.2 mph - N/A   Clear
8:30 AM 51.8 °F - 37.4 °F 58% 30.30 in - Variable 1.2 mph - N/A   Clear
9:00 AM 55.4 °F - 41.0 °F 58% 30.30 in - Variable 1.2 mph - N/A   Clear
9:30 AM 57.2 °F - 42.8 °F 59% 30.30 in - Variable 2.3 mph - N/A   Clear
10:00 AM 58 °F - 41 °F 41% 30.31 in 25 mi NW 4.5 mph - -   Clear
10:00 AM 59.0 °F - 41.0 °F 51% 30.30 in - NW 5.8 mph - N/A   Clear
10:30 AM 59.0 °F - 39.2 °F 48% 30.30 in - West 5.8 mph - N/A   Clear
11:00 AM 59.0 °F - 41.0 °F 51% 30.30 in - West 8.1 mph - N/A   Clear
11:30 AM 60.8 °F - 44.6 °F 55% 30.27 in - West 6.9 mph - N/A   Clear
12:00 PM 60.8 °F - 42.8 °F 52% 30.27 in - WSW 6.9 mph - N/A   Clear
12:30 PM 60.8 °F - 42.8 °F 52% 30.24 in - West 5.8 mph - N/A   Clear
1:00 PM 61 °F - 43 °F 40% 30.26 in 25 mi WSW 6.7 mph - -   Clear
1:00 PM 60.8 °F - 42.8 °F 52% 30.24 in - WSW 5.8 mph - N/A   Clear
1:30 PM 60.8 °F - 41.0 °F 48% 30.24 in - West 6.9 mph - N/A   Clear
2:00 PM 59.0 °F - 41.0 °F 51% 30.24 in - West 8.1 mph - N/A   Clear
2:30 PM 59.0 °F - 41.0 °F 51% 30.24 in - West 9.2 mph - N/A   Clear
3:00 PM 59.0 °F - 44.6 °F 59% 30.21 in - West 6.9 mph - N/A   Clear
3:30 PM 57.2 °F - 44.6 °F 63% 30.21 in - West 5.8 mph - N/A   Clear
4:00 PM 56 °F - 46 °F 60% 30.22 in 25 mi West 6.7 mph - -   Clear
4:00 PM 57.2 °F - 46.4 °F 67% 30.21 in - West 6.9 mph - N/A   Clear
4:30 PM 53.6 °F - 44.6 °F 72% 30.18 in - West 4.6 mph - N/A   Clear
5:00 PM 51.8 °F - 44.6 °F 76% 30.18 in - Variable 1.2 mph - N/A   Clear
5:30 PM 50.0 °F - 44.6 °F 82% 30.18 in - Variable 1.2 mph - N/A   Clear
6:00 PM 48.2 °F - 44.6 °F 87% 30.18 in - Variable 2.3 mph - N/A   Clear
6:30 PM 48.2 °F - 44.6 °F 87% 30.18 in - Variable 1.2 mph - N/A   Clear
7:00 PM 48 °F - 44 °F 82% 30.19 in 19 mi NNE 2.2 mph - -   Scattered Clouds
7:00 PM 48.2 °F - 44.6 °F 87% 30.15 in - Variable 1.2 mph - N/A   Clear
7:30 PM 48.2 °F - 44.6 °F 87% 30.15 in - Variable 1.2 mph - N/A   Clear
8:00 PM 48.2 °F - 44.6 °F 87% 30.15 in - Variable 1.2 mph - N/A   Clear
8:30 PM 46.4 °F - 42.8 °F 87% 30.15 in - Variable 2.3 mph - N/A   Clear
9:00 PM 48.2 °F - 44.6 °F 87% 30.15 in - Variable 2.3 mph - N/A   Clear
9:30 PM 48.2 °F - 44.6 °F 87% 30.15 in - Variable 2.3 mph - N/A   Clear
10:00 PM 47 °F - 44 °F 85% 30.17 in 12 mi NE 2.2 mph - -  
10:00 PM 46.4 °F - 44.6 °F 93% 30.15 in - Variable 2.3 mph - N/A   Clear
10:30 PM 46.4 °F - 42.8 °F 87% 30.15 in - Variable 2.3 mph - N/A   Clear
11:00 PM 44.6 °F 42.2 °F 41.0 °F 87% 30.15 in - ENE 4.6 mph - N/A   Clear
11:30 PM 46.4 °F - 42.8 °F 87% 30.12 in - Variable 2.3 mph - N/A   Clear